Regional Weather Roundup
Issued by NWS

Home | Current Version | Previous Version | Text Only | Print | Product List | Glossary Off
Versions: 1 2 3 4 5 6 7 8 9 10 11 12 13 14 15 16 17 18 19 20 21 22 23 24 25 26 27 28

000
ASUS45 KSLC 280710
RWRUT

UTAH REGIONAL WEATHER ROUNDUP
NATIONAL WEATHER SERVICE SALT LAKE CITY UT
100 AM MDT THU APR 28 2016

UTZ001>011-023>025-280800-

NORTHERN UTAH

CITY           SKY/WX    TMP DP  RH WIND       PRES   REMARKS
BRIGHAM CITY   CLOUDY    48  42  79 CALM      29.72F
HILL AFB       CLOUDY    45  42  89 S5        29.72F
LOGAN          PTCLDY    45  38  76 W5        29.73F
OGDEN          CLOUDY    47  42  83 S7        29.71F
PROVO AIRPORT  CLOUDY    45  39  81 CALM      29.73F
SALT LAKE CITY CLOUDY    48  44  86 SE6       29.71F
VERNAL         CLOUDY    46  33  60 N6        29.76F
WENDOVER       CLOUDY    45  37  76 N12       29.74S
HEBER CITY     DRIZZLE   43  37  81 CALM      29.72F

$$

UTZ012>022-026-027-280800-

SOUTHERN/CENTRAL UTAH

CITY           SKY/WX    TMP DP  RH WIND       PRES   REMARKS
BLANDING       CLOUDY    47  37  67 W7        29.81F
BRYCE CANYON   FOG       33  32  96 CALM      29.76F VSB 1/4
CEDAR CITY     MOCLDY    38  36  92 NE7       29.68F WCI  33
DELTA          CLOUDY    43  41  93 SW5       29.72S
HANKSVILLE     CLOUDY    45  43  93 NE3       29.74F
MILFORD        CLOUDY    41  38  89 NE5       29.70F
MOAB/CYNLANDS  CLOUDY    49  46  90 NW9       29.69F
PRICE          LGT RAIN  40  37  89 NE9       29.74F WCI  34
ST GEORGE      CLOUDY    50  39  66 SE6       29.66F

$$

REGIONAL REPORTS     COLORADO/ARIZONA

CITY           SKY/WX    TMP DP  RH WIND       PRES   REMARKS
CRAIG, CO      CLOUDY    33  29  85 CALM      29.82F
GRAND JUNCTION LGT RAIN  50  38  63 E9        29.73F
RIFLE          CLOUDY    40  33  76 CALM      29.78F
MONTROSE       CLOUDY    45  38  76 SE3       29.79F
CORTEZ         CLOUDY    49  35  58 SE9       29.78R
PAGE, AZ       LGT RAIN  50  45  83 SE5       29.70F
GRAND CANYON   CLOUDY    45  31  58 S9        29.74F
KINGMAN        LGT RAIN  48  43  82 SW30G38   29.70R
FLAGSTAFF      MOCLDY    45  24  43 S12       29.75F

$$

REGIONAL REPORTS    NEVADA/IDAHO/WYOMING

CITY           SKY/WX    TMP DP  RH WIND       PRES   REMARKS
LAS VEGAS, NV  CLOUDY    60  41  49 N8        29.59S
ELY            CLOUDY    37  36  96 N7        29.73F WCI  32
ELKO           CLOUDY    40  37  89 SW5       29.78F
POCATELLO, ID  CLOUDY    42  30  62 CALM      29.81S
BURLEY         CLOUDY    43  40  89 CALM      29.78S
EVANSTON, WY   CLOUDY    36  31  82 E14       29.78S WCI  27
ROCK SPRINGS   CLOUDY    33  27  78 E17       29.86F WCI  22
KEMMERER         N/A     32  30  93 N5        29.85S WCI  27

$$




USA.gov is the U.S. government's official web portal to all federal, state and local government web resources and services.